Regional Weather Roundup
Issued by NWS

Home | Current Version | Previous Version | Graphics & Text | Print | Product List | Glossary On
Versions: 1 2 3 4 5 6 7 8 9 10 11 12 13 14 15 16 17 18 19 20 21 22 23 24 25 26 27 28 29 30 31 32 33 34 35 36 37 38 39 40 41 42 43 44 45 46 47 48 49 50
438
ASUS43 KLOT 291603
RWRIL

ILLINOIS REGIONAL WEATHER ROUNDUP
NATIONAL WEATHER SERVICE CHICAGO/ROMEOVILLE IL
1100 AM CDT SAT APR 29 2017

NOTE: "FAIR" INDICATES FEW OR NO CLOUDS BELOW 12,000 FEET WITH NO
SIGNIFICANT WEATHER AND/OR OBSTRUCTIONS TO VISIBILITY.

* THESE STATIONS ARE NOT UNDER NWS QUALITY CONTROL. THEY ALSO MAY NOT
  REPORT WEATHER SUCH AS PRECIPITATION OR FOG.

ILZ001-002-007-009-015-016-024-291700-
NORTHWEST ILLINOIS

CITY           SKY/WX    TMP DP  RH WIND       PRES   REMARKS
MOLINE         LGT RAIN  45  37  73 NE17      30.11R
STERLING*      CLOUDY    47  35  63 E14       30.13R
SAVANNA*       CLOUDY    48  36  62 NE13G18   30.13R
$$

ILZ003-004-008-010-011-017-018-291700-
NORTH CENTRAL ILLINOIS

CITY           SKY/WX    TMP DP  RH WIND       PRES   REMARKS
ROCKFORD       CLOUDY    47  33  58 NE22      30.16S
FREEPORT*      CLOUDY    46  36  70 NE20G26   30.14S
ROCHELLE*      CLOUDY    45  35  70 NE25G31   30.11F
DE KALB*       CLOUDY    45  35  67 NE22      30.13S
PERU*          DRIZZLE   45  35  66 E16       30.16R
$$

ILZ005-006-012>014-019>023-291700-
NORTHEAST ILLINOIS

CITY           SKY/WX    TMP DP  RH WIND       PRES   REMARKS
CHICAGO-OHARE  CLOUDY    45  32  60 NE22G32   30.15R
CHICAGO-MIDWAY CLOUDY    45  36  70 NE26G36   30.15R
AURORA         CLOUDY    47  33  58 NE24G31   30.12R
LANSING*       CLOUDY    45  39  79 NE17G30   30.14R
WAUKEGAN       PTSUNNY   42  33  70 N23G32    30.18R
DUPAGE AIRPORT CLOUDY    46  34  62 NE22G31   30.13R
WHEELING       CLOUDY    43  35  73 NE17G31   30.18R
MORRIS*        LGT RAIN  47  36  66 NE10G23   30.10R
NORTHERLY ISL    N/A     43  37  79 MISG        N/A
$$

LMZ740>746-291700-
SOUTHERN LAKE MICHIGAN

STATION/POSITION SKY/WX   TEMP    WIND        PRES    VSBY  WAVE
                          AIR SEA DIR/SP/G                  HT/PER
                          (F)     (DEG/KT/KT) (MB)    (MI)  (FT/S)
SOUTHERN BUOY              41 41   20/ 19/ 23 1021.7          4/ 5
HARRISON CRIB              42      10/ 25/ 27   N/A
BURNHAM HARBOR             43      10/ 20/ 23   N/A
CALUMET HARBOR             44     350/ 14/ 23 1021.3R
BURNS HARBOR               44      20/ 21/ 24 1021.3R
MICHIGAN CITY              44      10/ 22/ 25   N/A
MICHIGAN CITY 6N           44 46                N/A           6/ 5
ST. JOSEPH                 47 48   50/ 16/ 21 1021.9R         5/ 4
$$

ILZ025>027-034>036-040-047-049-050-058-095>099-291700-
WEST-CENTRAL ILLINOIS

CITY           SKY/WX    TMP DP  RH WIND       PRES   REMARKS
QUINCY         RAIN      49  46  90 NE21      29.99R FOG
GALESBURG*     DRIZZLE   45  40  83 NE13      30.11R
MACOMB*        RAIN      47  45  93 NE18      30.06S
JACKSONVILLE*  TSTM      48  47  97 E16       30.02F
PITTSFIELD*    CLOUDY    49  49  98 E16       30.00S
$$

ILZ028>032-037-038-041>044-048-051>054-059>061-291700-
CENTRAL ILLINOIS

CITY           SKY/WX    TMP DP  RH WIND       PRES   REMARKS
PONTIAC        LGT RAIN  49  43  79 E10G20    30.18R
BLOOMINGTON    RAIN      47  44  90 NE21      30.10F FOG
DECATUR        RAIN      50  50 100 NE15      30.05F FOG
PEORIA         LGT RAIN  47  42  83 NE21G28   30.08R
SPRINGFIELD    RAIN      50  48  93 E16       30.03F FOG
TAYLORVILLE    RAIN      49  49  99 NE16G23   30.01F
$$

ILZ033-039-045-046-055>057-062-063-291700-
EAST-CENTRAL ILLINOIS

CITY           SKY/WX    TMP DP  RH WIND       PRES   REMARKS
CHAMPAIGN      HVY RAIN  50  47  89 NE13      30.11R FOG
RANTOUL*       RAIN      50  49  96 NE12G18   30.11R
MATTOON        LGT RAIN  58  57  97 N8G21     30.04F
PARIS*         LGT RAIN  56  56 100 SW12G22   30.07R
$$

ILZ079-100>102-291700-
SOUTHWEST ILLINOIS

CITY           SKY/WX    TMP DP  RH WIND       PRES   REMARKS
ALTON          TSTM      57  57 100 NE8       29.97F FOG
BELLEVILLE     CLOUDY    61  61 100 E8        29.91F
CAHOKIA*       CLOUDY    63  60  90 NE6       29.93R
$$

ILZ064>066-069>071-074>076-080>082-084>086-088>090-092>094-291700-
SOUTH-CENTRAL ILLINOIS

CITY           SKY/WX    TMP DP  RH WIND       PRES   REMARKS
CARBONDALE     CLOUDY    67  65  93 E10       29.94S
CAIRO*         MOSUNNY   76  70  81 E8        29.93F
EFFINGHAM*     CLOUDY    60  60 100 E8        30.01F
MARION         CLOUDY    70  68  94 SE12      29.96S
MT. VERNON     CLOUDY    67  64  90 E6        29.97F
CENTRALIA*     CLOUDY    66  65  95 SE7       29.95F
SALEM*         CLOUDY    66  64  91 SE8       29.96F
$$

ILZ067-068-072-073-078-083-087-091-291700-
SOUTHEAST ILLINOIS

CITY           SKY/WX    TMP DP  RH WIND       PRES   REMARKS
LAWRENCEVILLE  CLOUDY    71  66  84 SE17      30.01R
FLORA*         MOSUNNY   69  66  89 SE10      29.99F
FAIRFIELD*     PTSUNNY   68  65  90 SE6       29.97S
HARRISBURG*    CLOUDY    68  65  91 SE10      29.98S
ROBINSON*      CLOUDY    65  64  96 SE7       30.03S
CARMI*         CLOUDY    69  65  86 E13       29.98F
$$

ABBREVIATIONS USED IN REMARKS
   TC - TEMPERATURE IN CELSIUS
  WCI - WIND CHILL INDEX
   HX - HEAT INDEX
  VSB - VISIBILITY
$$





USA.gov is the U.S. government's official web portal to all federal, state and local government web resources and services.